GEFSNGP_850_meantemp_150.txt.gz
Temperature
4 4 4 5 5 4 4 4 5 5 4 6 6 5 7 7 8 8 8 8 8 7 7 7 7 7 6 6 6 6 6 5 5 5 5 5 5 5 5 4 4 4 4 4
4 4 4 4 4 4 4 4 4 5 5 5 6 7 7 7 7 7 8 8 7 7 7 7 6 6 6 6 5 5 5 5 5 5 5 5 4 4 4 4 4 4 4 3
4 3 4 5 5 4 4 4 4 5 6 5 5 5 6 7 7 7 7 7 7 7 7 6 6 6 5 5 5 5 5 5 4 4 4 4 4 4 4 4 3 3 3 3
3 4 5 7 6 5 4 4 4 5 5 5 5 6 7 7 7 7 7 7 7 6 6 6 6 5 5 5 4 4 4 4 4 4 4 4 4 4 3 3 3 3 3 2
3 3 4 5 5 4 4 5 4 4 5 5 5 5 6 7 7 7 7 6 6 6 6 5 5 5 5 4 4 4 4 4 4 4 4 3 3 3 3 3 3 2 2 2
3 4 5 7 6 6 5 6 6 4 4 4 4 4 5 7 7 6 6 6 6 5 5 5 5 4 4 4 4 4 4 3 3 3 3 3 3 3 2 2 2 2 2 2
3 3 4 5 5 6 6 7 6 6 5 5 4 5 7 6 6 6 6 5 5 5 5 4 4 4 4 4 4 3 3 3 3 3 3 2 2 2 2 2 2 2 1 1
2 3 4 5 4 5 6 7 7 6 6 6 6 6 6 6 5 5 5 5 5 4 4 4 4 3 3 3 3 3 3 3 3 2 2 2 2 2 1 1 1 1 1 1
3 5 5 5 6 7 7 7 7 7 6 6 6 6 5 5 5 5 4 4 4 4 4 4 3 3 3 3 3 3 2 2 2 2 2 2 1 1 1 1 1 0 0 0
1 2 4 5 6 6 6 6 6 6 6 6 5 5 5 4 4 4 4 4 3 3 3 3 3 3 3 2 2 2 2 2 2 2 1 1 1 1 0 0 -0 -0 -0 -0
1 2 4 5 6 7 6 6 6 6 5 5 5 4 4 4 4 4 3 3 3 3 3 3 2 2 2 2 2 2 1 1 1 1 1 1 0 0 -0 -0 -1 -1 -1 -1
4 4 4 6 7 6 6 6 6 5 5 5 4 4 4 3 3 3 3 3 3 2 2 2 2 2 2 1 1 1 1 1 1 0 0 0 -0 -0 -0 -1 -1 -1 -1 -2
6 6 6 5 5 5 5 5 5 4 4 4 4 3 3 3 3 3 2 2 2 2 2 2 2 2 2 1 1 1 0 0 0 -0 -0 -1 -1 -1 -1 -1 -1 -1 -2 -2
5 5 4 4 5 4 4 4 4 4 3 3 3 3 2 2 2 2 2 2 2 2 2 1 1 1 1 1 0 0 0 -0 -0 -1 -1 -1 -1 -1 -2 -2 -2 -1 -2 -2
4 4 4 4 4 3 3 3 3 3 3 2 2 2 2 2 2 2 2 1 1 1 1 1 1 1 1 0 0 -0 -0 -1 -1 -1 -1 -1 -2 -2 -2 -3 -3 -3 -3 -3
3 3 3 3 3 2 2 2 2 2 2 2 2 2 1 1 1 1 1 1 1 1 1 1 1 1 0 -0 -0 -1 -1 -1 -1 -1 -2 -2 -2 -3 -3 -3 -3 -3 -3 -3
2 2 2 2 2 2 2 2 2 2 2 1 1 1 1 1 1 1 1 1 1 1 0 0 0 -0 -0 -0 -1 -1 -1 -1 -1 -2 -2 -2 -3 -3 -3 -4 -4 -4 -4 -4
2 2 2 2 1 1 1 1 1 1 1 1 1 1 1 1 1 1 1 0 0 0 0 0 -0 -0 -1 -1 -1 -1 -2 -2 -2 -2 -2 -3 -3 -3 -4 -4 -4 -4 -4 -4
1 1 1 1 1 1 1 1 1 1 1 1 0 0 0 0 0 0 -0 -0 -0 -0 -0 -0 -1 -1 -1 -1 -2 -2 -2 -2 -2 -3 -3 -3 -3 -4 -4 -4 -4 -5 -5 -5
1 1 1 1 1 0 0 0 0 0 0 0 0 0 0 0 -0 -0 -1 -1 -1 -1 -1 -1 -1 -1 -1 -2 -2 -2 -2 -3 -3 -3 -3 -4 -4 -4 -4 -5 -5 -5 -5 -5
1 1 0 0 0 0 0 0 0 -0 -0 -0 -0 -0 -0 -0 -1 -1 -1 -1 -1 -1 -1 -1 -2 -2 -2 -2 -2 -3 -3 -3 -4 -4 -4 -4 -4 -4 -5 -5 -5 -5 -5 -5
0 0 -0 -0 -0 -0 -0 -0 -0 -1 -1 -1 -1 -1 -1 -1 -1 -1 -1 -1 -1 -1 -2 -2 -2 -2 -2 -3 -3 -3 -3 -4 -4 -4 -4 -4 -5 -5 -5 -5 -5 -5 -5 -6
-0 -0 -1 -1 -1 -1 -1 -1 -1 -1 -1 -1 -1 -1 -1 -1 -2 -2 -2 -1 -2 -2 -2 -2 -2 -3 -3 -3 -3 -4 -4 -4 -4 -5 -5 -5 -5 -5 -5 -5 -5 -6 -6 -6
-1 -1 -1 -1 -1 -1 -1 -1 -1 -1 -1 -1 -1 -1 -2 -2 -2 -2 -2 -2 -2 -2 -2 -3 -3 -3 -3 -4 -4 -4 -4 -4 -4 -5 -5 -5 -5 -5 -5 -6 -6 -6 -6 -6
-1 -1 -1 -1 -1 -1 -1 -2 -2 -2 -2 -2 -2 -2 -2 -2 -2 -2 -2 -2 -3 -3 -3 -3 -3 -3 -4 -4 -4 -4 -4 -5 -5 -5 -5 -5 -5 -5 -6 -6 -6 -6 -6 -6
-2 -2 -2 -2 -2 -2 -2 -2 -2 -2 -2 -2 -2 -2 -2 -2 -3 -3 -3 -3 -3 -3 -3 -3 -3 -4 -4 -4 -4 -4 -5 -5 -5 -5 -5 -5 -5 -6 -6 -6 -6 -6 -6 -6
-2 -2 -2 -2 -2 -2 -2 -2 -3 -2 -3 -3 -3 -2 -3 -3 -3 -3 -3 -3 -3 -3 -4 -4 -4 -4 -4 -5 -5 -5 -5 -5 -5 -5 -6 -6 -6 -6 -6 -6 -6 -6 -6 -6

GEFSNGP_850_meantemp_156.txt.gz
Temperature
8 8 7 8 8 8 8 10 11 12 11 12 12 11 10 9 8 7 7 7 7 7 7 7 7 7 7 6 6 6 6 5 5 5 5 5 5 5 5 5 5 4 4 4
7 7 7 7 8 8 8 8 9 10 10 11 10 9 8 8 7 7 7 7 7 7 7 7 7 7 6 6 6 6 5 5 5 5 5 5 5 4 4 4 4 4 4 4
8 7 7 9 9 8 8 8 9 9 11 10 9 8 8 7 7 7 7 7 7 7 7 7 6 6 6 6 5 5 5 5 4 4 4 4 4 4 4 4 4 4 3 3
7 7 8 11 8 8 8 8 8 8 9 9 8 7 7 7 7 7 7 7 7 7 7 6 6 6 5 5 5 5 4 4 4 4 4 4 4 3 3 3 3 3 3 3
7 8 9 10 8 7 7 9 8 8 8 7 6 6 7 7 7 7 7 7 7 7 6 6 6 5 5 5 4 4 4 4 4 3 3 3 3 3 3 3 3 3 2 2
7 7 9 11 8 6 7 9 8 7 7 6 6 8 9 7 7 7 7 7 6 6 6 5 5 5 4 4 4 4 4 3 3 3 3 3 3 2 2 2 2 2 2 2
6 7 9 9 6 6 9 11 8 6 6 6 6 8 7 7 7 6 6 6 6 6 5 5 4 4 4 4 4 3 3 3 3 2 2 2 2 2 2 2 2 2 2 1
6 6 8 7 6 8 10 7 7 6 6 6 6 6 6 6 6 6 6 5 5 5 5 4 4 4 4 3 3 3 3 3 2 2 2 2 2 2 1 1 1 1 1 1
7 9 8 6 7 7 7 7 7 7 7 6 6 6 6 6 5 5 5 5 5 4 4 4 4 3 3 3 3 3 2 2 2 2 2 1 1 1 1 1 0 0 -0 -0
5 6 6 5 6 6 6 6 7 6 6 6 6 5 5 5 5 5 4 4 4 4 4 3 3 3 3 2 2 2 2 2 1 1 1 1 1 1 0 0 -0 -1 -1 -1
5 6 5 5 6 7 6 6 6 6 6 5 5 5 5 4 4 4 4 4 3 3 3 3 3 2 2 2 2 2 1 1 1 1 1 1 0 0 -0 -0 -1 -1 -1 -1
7 7 6 7 6 6 6 6 6 5 5 5 5 4 4 4 4 4 3 3 3 3 2 2 2 2 2 1 1 1 1 1 1 0 0 0 -0 -0 -0 -0 -1 -1 -1 -2
6 6 5 5 5 5 5 5 5 4 4 4 4 4 4 3 3 3 3 2 2 2 2 2 2 2 1 1 1 1 0 0 0 -0 -0 -1 -1 -1 -1 -1 -1 -1 -2 -2
5 4 4 4 4 4 4 4 4 3 3 3 3 3 3 3 2 2 2 2 2 2 2 2 1 1 1 1 0 0 -0 -0 -0 -1 -1 -1 -1 -2 -2 -2 -2 -2 -2 -2
4 3 3 3 3 3 3 3 3 3 3 2 2 2 2 2 2 2 2 1 1 1 1 1 1 1 0 0 -0 -0 -0 -1 -1 -1 -1 -1 -2 -2 -2 -3 -3 -3 -3 -2
3 3 3 2 2 2 2 2 2 2 2 2 2 2 1 1 1 1 1 1 1 1 1 1 1 0 0 -0 -0 -1 -1 -1 -1 -2 -2 -2 -2 -3 -3 -3 -3 -4 -4 -4
1 1 2 1 2 2 2 2 1 1 1 1 1 1 1 1 1 1 1 1 1 1 1 0 0 0 -0 -0 -1 -1 -1 -1 -2 -2 -2 -3 -3 -3 -3 -4 -4 -4 -4 -4
1 1 1 1 1 1 1 1 1 1 1 1 1 0 0 0 0 0 0 0 0 0 0 0 -0 -0 -0 -1 -1 -1 -2 -2 -2 -2 -3 -3 -3 -4 -4 -4 -4 -5 -4 -5
1 1 1 1 1 1 1 1 0 0 0 0 0 0 0 -0 -0 -0 -0 -0 -0 -0 0 -0 -0 -1 -1 -1 -2 -2 -2 -2 -2 -3 -3 -3 -4 -4 -4 -5 -5 -5 -5 -5
0 0 0 0 0 0 0 0 0 -0 -0 -0 -0 -0 -0 -0 -1 -1 -1 -1 -1 -1 -1 -1 -1 -1 -1 -2 -2 -2 -2 -3 -3 -3 -3 -4 -4 -5 -5 -5 -5 -5 -5 -6
-0 -0 -0 -0 -0 -0 -0 -0 -0 -0 -0 -1 -1 -1 -1 -1 -1 -1 -1 -1 -1 -1 -1 -1 -1 -2 -2 -2 -2 -3 -3 -3 -3 -4 -4 -4 -5 -5 -5 -5 -5 -6 -6 -6
-0 -1 -1 -1 -1 -1 -1 -1 -1 -1 -1 -1 -1 -1 -1 -1 -1 -2 -2 -2 -1 -2 -2 -2 -2 -2 -2 -3 -3 -3 -3 -3 -4 -4 -4 -5 -5 -5 -5 -5 -6 -6 -6 -6
-1 -1 -1 -1 -1 -1 -1 -1 -1 -1 -1 -1 -1 -2 -2 -2 -2 -2 -2 -2 -2 -2 -2 -2 -2 -2 -3 -3 -3 -3 -4 -4 -4 -4 -5 -5 -5 -5 -5 -6 -6 -6 -6 -6
-1 -1 -1 -1 -2 -2 -2 -1 -2 -2 -2 -2 -2 -2 -2 -2 -2 -2 -2 -2 -2 -3 -3 -3 -3 -3 -3 -3 -4 -4 -4 -4 -4 -5 -5 -5 -5 -6 -6 -6 -6 -6 -6 -6
-2 -2 -2 -2 -2 -2 -2 -2 -2 -2 -2 -2 -2 -2 -2 -2 -3 -3 -3 -3 -3 -3 -3 -3 -3 -3 -4 -4 -4 -4 -4 -5 -5 -5 -6 -6 -6 -6 -6 -6 -6 -6 -6 -7
-2 -2 -2 -2 -2 -2 -3 -3 -3 -3 -3 -3 -3 -3 -3 -3 -3 -3 -3 -3 -3 -4 -4 -4 -4 -4 -4 -4 -4 -5 -5 -5 -5 -6 -6 -6 -6 -6 -6 -6 -6 -7 -7 -7
-3 -3 -3 -3 -3 -3 -3 -3 -3 -3 -3 -3 -3 -3 -3 -3 -4 -4 -4 -4 -4 -4 -4 -4 -4 -5 -5 -5 -5 -5 -5 -6 -6 -6 -6 -6 -6 -6 -6 -7 -7 -7 -7 -7

GEFSNGP_850_meantemp_162.txt.gz
Temperature
9 10 10 9 9 9 8 8 8 10 11 11 11 10 11 11 10 10 9 9 8 8 8 7 7 7 7 7 7 7 7 6 6 6 6 5 5 5 5 5 5 4 4 4
8 9 9 8 9 9 9 9 9 9 10 11 11 11 11 10 10 9 9 9 8 8 7 7 7 7 7 7 7 6 6 6 6 5 5 5 5 5 4 4 4 4 4 4
7 9 8 7 9 9 9 9 9 9 10 10 10 10 10 10 9 9 9 8 8 7 7 7 7 7 6 6 6 6 6 5 5 5 5 5 4 4 4 4 4 4 3 3
6 7 7 10 10 10 10 10 10 10 10 10 10 9 9 9 9 8 8 8 7 7 7 7 7 6 6 6 5 5 5 5 5 4 4 4 4 4 4 3 3 3 3 3
6 6 8 10 9 9 9 9 10 9 9 9 9 9 8 9 8 8 8 8 7 7 7 7 6 6 5 5 5 5 5 4 4 4 4 4 4 4 3 3 3 3 2 2
6 7 7 10 9 9 9 8 9 9 8 8 8 6 6 8 8 8 7 7 7 7 6 6 6 5 5 5 5 4 4 4 4 4 3 3 3 3 3 2 2 2 2 2
5 6 7 9 8 8 8 8 9 9 8 8 7 7 7 7 7 7 7 7 6 6 6 6 5 5 5 5 4 4 4 4 3 3 3 3 2 2 2 2 2 2 2 2
5 5 6 7 7 7 8 8 8 8 8 8 7 7 7 7 6 6 6 6 6 6 5 5 5 5 5 4 4 4 3 3 3 3 2 2 2 2 2 1 1 1 1 1
7 7 8 8 8 8 8 8 7 7 7 7 7 6 6 6 6 6 6 5 5 5 5 5 4 4 4 4 3 3 3 3 3 2 2 2 1 1 1 1 1 1 0 0
6 7 8 8 8 8 8 7 7 7 7 6 6 6 6 5 5 5 5 5 5 5 4 4 4 4 4 3 3 3 2 2 2 2 2 1 1 1 1 0 0 0 -0 -0
5 6 7 8 8 7 7 7 6 6 6 6 6 5 5 5 5 5 4 4 4 4 4 4 4 3 3 3 2 2 2 2 2 1 1 1 1 0 0 0 -0 -1 -1 -1
5 6 6 7 7 7 6 6 6 6 5 5 5 5 4 4 4 4 4 4 3 3 3 3 3 3 2 2 2 2 1 1 1 1 1 0 0 -0 -0 -0 -1 -1 -1 -2
6 6 6 6 6 6 5 5 5 5 4 4 4 4 4 4 3 3 3 3 3 3 3 2 2 2 2 2 1 1 1 1 1 0 0 -0 -0 -1 -1 -1 -1 -1 -2 -2
5 5 5 5 5 4 4 4 4 4 4 3 3 3 3 3 3 3 2 2 2 2 2 2 2 1 1 1 1 1 1 0 0 -0 -0 -1 -1 -1 -2 -2 -2 -2 -2 -2
4 4 4 4 4 3 3 3 3 3 3 2 2 2 2 2 2 2 2 2 1 1 1 1 1 1 1 1 1 0 0 0 -0 -0 -1 -1 -1 -2 -2 -2 -3 -3 -2 -3
3 3 3 3 2 2 2 2 2 2 2 2 1 1 1 1 1 1 1 1 1 1 1 1 1 1 1 0 0 0 -0 -0 -1 -1 -1 -1 -2 -2 -2 -3 -3 -3 -3 -3
2 1 1 1 1 1 1 1 1 1 1 1 1 1 1 0 1 1 1 1 0 0 0 0 0 0 0 -0 -0 -0 -1 -1 -1 -1 -2 -2 -2 -3 -3 -3 -4 -4 -4 -4
1 1 1 0 0 0 0 0 0 0 0 0 0 -0 -0 -0 -0 0 0 -0 -0 -0 0 -0 -0 -0 -0 -0 -1 -1 -1 -1 -2 -2 -2 -2 -3 -3 -3 -4 -4 -4 -4 -4
0 0 -0 -0 -0 -0 -0 -0 -0 -0 -0 -0 -0 -1 -1 -1 -1 -1 -1 -1 -1 -0 -0 -0 -1 -1 -1 -1 -1 -2 -2 -2 -2 -2 -3 -3 -3 -3 -4 -4 -5 -5 -5 -5
-0 -0 -1 -1 -1 -1 -1 -1 -1 -1 -1 -1 -1 -1 -1 -1 -1 -1 -1 -1 -1 -1 -1 -1 -1 -1 -1 -2 -2 -2 -2 -2 -3 -3 -3 -3 -4 -4 -5 -5 -5 -5 -5 -5
-1 -1 -1 -1 -1 -1 -1 -1 -1 -1 -1 -1 -1 -1 -1 -1 -1 -2 -2 -1 -1 -1 -2 -2 -2 -2 -2 -2 -2 -2 -3 -3 -3 -3 -4 -4 -4 -5 -5 -5 -5 -5 -5 -6
-1 -1 -1 -1 -1 -1 -1 -1 -1 -1 -1 -1 -2 -2 -2 -2 -2 -2 -2 -2 -2 -2 -2 -2 -2 -2 -3 -3 -3 -3 -3 -4 -4 -4 -4 -4 -5 -5 -5 -6 -6 -6 -6 -6
-2 -2 -2 -2 -2 -2 -2 -2 -2 -2 -2 -2 -2 -2 -2 -2 -2 -2 -2 -2 -2 -2 -3 -3 -3 -3 -3 -3 -3 -4 -4 -4 -4 -4 -5 -5 -5 -5 -6 -6 -6 -6 -6 -6
-2 -2 -2 -2 -2 -2 -2 -2 -2 -2 -2 -2 -2 -3 -3 -3 -3 -3 -3 -3 -3 -3 -3 -3 -3 -3 -4 -4 -4 -4 -4 -5 -5 -5 -5 -5 -6 -6 -6 -7 -7 -7 -7 -7
-3 -3 -3 -3 -3 -3 -3 -3 -3 -3 -3 -3 -3 -3 -3 -3 -3 -3 -3 -3 -3 -3 -3 -4 -4 -4 -4 -4 -4 -5 -5 -5 -5 -5 -6 -6 -6 -6 -7 -7 -7 -7 -7 -7
-3 -3 -3 -3 -3 -3 -3 -3 -3 -3 -3 -3 -3 -3 -3 -4 -4 -4 -4 -4 -4 -4 -4 -4 -4 -5 -5 -5 -5 -5 -5 -5 -6 -6 -6 -6 -6 -7 -7 -7 -7 -7 -7 -7
-4 -4 -4 -4 -4 -4 -4 -4 -4 -4 -4 -4 -4 -4 -4 -4 -4 -4 -4 -4 -4 -4 -5 -5 -5 -5 -5 -5 -6 -6 -6 -6 -6 -6 -6 -7 -7 -7 -7 -7 -7 -7 -7 -7

GEFSNGP_850_meantemp_168.txt.gz
Temperature
6 6 6 6 6 6 6 6 6 7 7 8 8 7 8 9 9 9 9 9 9 9 8 8 8 8 7 7 7 7 7 7 7 6 6 6 5 5 5 5 5 4 4 4
5 6 6 6 6 6 6 6 6 7 7 8 8 8 8 8 8 8 9 9 9 8 8 8 8 7 7 7 7 7 7 6 6 6 5 5 5 5 5 5 4 4 4 4
5 5 6 6 7 6 6 6 6 7 8 7 7 7 8 8 8 8 8 8 8 8 8 8 7 7 7 7 7 6 6 6 5 5 5 5 5 4 4 4 4 4 3 3
4 5 6 8 8 7 7 7 6 6 6 7 7 8 8 8 8 8 8 8 8 8 8 7 7 7 7 6 6 6 6 5 5 5 5 4 4 4 4 4 3 3 3 3
4 4 5 7 7 7 7 6 6 6 6 6 7 7 7 8 8 8 8 8 8 8 7 7 7 6 6 6 6 5 5 5 5 4 4 4 4 4 4 3 3 3 3 2
4 5 6 7 7 7 7 6 6 6 5 5 6 4 5 7 7 8 8 7 7 7 7 7 6 6 6 5 5 5 5 5 4 4 4 3 3 3 3 3 3 2 2 2
3 4 5 6 6 7 7 7 7 7 6 6 5 5 7 7 7 7 7 7 7 7 6 6 6 6 5 5 5 5 4 4 4 4 3 3 3 3 3 2 2 2 2 2
3 4 5 6 6 6 6 7 7 7 6 6 6 6 6 6 6 6 6 6 6 6 6 6 5 5 5 5 4 4 4 4 3 3 3 3 2 2 2 2 2 1 1 1
4 5 6 6 6 7 7 6 7 6 6 6 6 6 6 6 5 5 5 5 5 5 5 5 5 4 4 4 4 4 3 3 3 3 2 2 2 2 2 1 1 1 1 1
3 4 5 6 6 6 6 6 6 6 6 6 5 5 5 5 5 5 5 4 4 4 4 4 4 4 4 3 3 3 3 3 2 2 2 2 1 1 1 1 1 1 0 0
3 3 4 5 6 6 6 6 5 5 5 5 5 5 4 4 4 4 4 4 4 4 4 4 3 3 3 3 3 3 2 2 2 2 1 1 1 1 1 0 0 -0 -0 -0
3 4 3 4 5 5 5 5 4 4 4 4 4 4 4 4 3 3 3 3 3 3 3 3 3 3 3 2 2 2 2 1 1 1 1 1 1 1 0 0 -0 -1 -1 -1
4 4 4 4 4 4 4 4 4 3 3 3 3 3 3 3 3 3 3 2 2 2 2 2 2 2 2 2 1 1 1 1 1 1 0 0 0 -0 -0 -0 -1 -1 -1 -1
4 3 3 3 3 3 3 3 3 3 3 3 3 2 2 2 2 2 2 2 1 1 1 1 1 2 1 1 1 1 0 0 0 0 -0 -0 -0 -1 -1 -1 -1 -1 -1 -2
3 2 2 2 2 2 2 2 2 2 2 2 2 2 1 1 1 1 1 1 1 1 1 1 1 1 0 0 0 0 0 -0 -0 -0 -1 -1 -1 -1 -2 -2 -2 -2 -2 -2
2 2 1 1 1 1 1 1 1 1 1 1 1 1 1 1 1 1 0 0 0 0 0 0 0 0 -0 -0 -0 -0 -0 -1 -1 -1 -1 -1 -2 -2 -2 -2 -2 -3 -3 -3
0 0 0 0 0 0 0 0 0 0 0 0 0 0 0 0 -0 -0 -0 -1 -1 -1 -0 -1 -1 -1 -1 -1 -1 -1 -1 -1 -1 -1 -2 -2 -2 -3 -3 -3 -3 -3 -3 -4
-0 -0 -0 -0 -1 -1 -1 -1 -0 -0 -0 -0 -0 -0 -1 -1 -1 -1 -1 -1 -1 -1 -1 -1 -1 -1 -1 -1 -1 -1 -2 -2 -2 -2 -2 -3 -3 -3 -3 -3 -4 -4 -4 -4
-0 -1 -1 -1 -1 -1 -1 -1 -1 -1 -1 -1 -1 -1 -1 -2 -2 -2 -2 -2 -2 -2 -2 -2 -2 -2 -2 -2 -2 -2 -2 -2 -2 -3 -3 -3 -3 -3 -4 -4 -4 -5 -5 -5
-1 -1 -1 -1 -1 -1 -1 -1 -1 -2 -2 -2 -2 -2 -2 -2 -2 -2 -2 -2 -2 -2 -2 -2 -2 -2 -2 -2 -2 -2 -3 -3 -3 -3 -3 -3 -4 -4 -4 -5 -5 -5 -5 -6
-2 -2 -2 -2 -2 -2 -2 -2 -2 -2 -2 -2 -2 -2 -2 -2 -3 -3 -3 -3 -2 -3 -3 -3 -3 -3 -3 -3 -3 -3 -3 -3 -4 -4 -4 -4 -5 -5 -5 -5 -5 -6 -6 -6
-2 -2 -2 -2 -2 -2 -2 -2 -2 -3 -3 -3 -3 -3 -3 -3 -3 -3 -3 -3 -3 -3 -3 -3 -3 -3 -3 -3 -3 -4 -4 -4 -4 -4 -5 -5 -5 -5 -6 -6 -6 -6 -6 -6
-3 -3 -3 -3 -3 -3 -3 -3 -3 -3 -3 -3 -3 -3 -3 -3 -3 -3 -3 -3 -3 -4 -4 -4 -4 -4 -4 -4 -4 -4 -4 -4 -5 -5 -5 -5 -6 -6 -6 -6 -6 -6 -7 -7
-4 -4 -4 -4 -4 -4 -3 -3 -3 -3 -3 -3 -4 -4 -4 -4 -4 -4 -4 -4 -4 -4 -4 -4 -4 -4 -4 -4 -5 -5 -5 -5 -5 -5 -6 -6 -6 -6 -7 -7 -7 -7 -7 -7
-4 -4 -4 -4 -4 -4 -4 -4 -4 -4 -4 -4 -4 -4 -4 -4 -4 -4 -4 -4 -4 -4 -4 -4 -5 -5 -5 -5 -5 -5 -5 -6 -6 -6 -6 -6 -7 -7 -7 -7 -7 -7 -7 -7
-5 -5 -5 -5 -5 -5 -5 -5 -5 -5 -5 -4 -4 -4 -4 -5 -5 -5 -5 -5 -5 -5 -5 -5 -5 -5 -5 -6 -6 -6 -6 -6 -6 -7 -7 -7 -7 -7 -7 -7 -7 -7 -8 -8
-5 -5 -5 -5 -5 -5 -5 -5 -5 -5 -5 -5 -5 -5 -5 -5 -5 -5 -5 -5 -5 -5 -6 -6 -6 -6 -6 -6 -6 -6 -7 -7 -7 -7 -7 -7 -7 -7 -7 -8 -8 -8 -8 -8